Location: Betzi
(47.2343°N, 9.5260°E)
Time: 23:09:18
(UTC+00:00)

Meteor 2-10 Rocket - Pass Details

Date: 27 May 2022
Orbit: 733 x 885 km, 81.2° (Epoch: 29 June)

Event Time Altitude Azimuth Distance (km) Brightness Sun altitude
Rises 00:06:03 0° 349° (N) 3,461 8.1 -20.7°
Reaches altitude 10° 00:08:33 10° 352° (N) 2,502 7.2 -20.6°
Maximum altitude 00:14:14 72° 77° (ENE) 879 3.8 -20.4°
Enters shadow 00:16:52 32° 155° (SSE) 1,391 4.4 -20.3°
